[[{"header":{"parameterUnit":"m.s-1","parameterCategory":1,"la1":30.2991,"la2":30.254,"lo1":-89.0895,"lo2":-89.0444,"dy":0.0017,"dx":0.0017,"nx":28,"ny":28,"refTime":"2024-06-04T09:00:00:Z","depth":0,"parameterNumber":2,"parameterNumberName":"U-component_of_WINDS"},"data":[0,0,0,0,0,0,0,0,0,0,0,0,0,0,0,0,0,0,0,0,0,0,0,0,0,0,0,0,0,0,0,0,0,0,0,0,0,0,0,0,0,0,0,0,0,0,0,0,0,0,0,0,0,0,0,0,0,0,-1.6881,-1.6881,0,-1.6849,-1.6848,-1.6848,-1.6812,-1.6811,-1.6811,-1.681,-1.6776,-1.6775,-1.6775,0,0,0,0,0,0,0,0,0,0,0,0,0,-1.6912,-1.6911,-1.6881,-1.6881,-1.688,-1.6849,-1.6848,-1.6848,-1.6812,-1.6811,-1.681,-1.681,-1.6776,-1.6775,-1.6775,0,0,0,0,0,0,0,0,0,0,0,0,0,-1.6891,-1.6911,-1.6881,-1.6859,-1.6856,-1.6849,-1.6848,-1.6848,-1.6812,-1.6811,-1.681,-1.681,-1.6776,-1.6775,-1.6775,-1.6786,0,0,-1.6773,-1.6772,0,0,0,0,0,0,0,0,-1.6892,-1.689,-1.6862,-1.686,-1.6858,-1.6833,-1.6846,-1.6827,-1.6812,-1.6829,-1.681,-1.6809,-1.6795,-1.6793,-1.6789,-1.6785,-1.6783,-1.6773,-1.6772,-1.6772,-1.6772,0,0,0,0,0,0,0,-1.6893,-1.6891,-1.6868,-1.6862,-1.6859,-1.685,-1.6846,-1.6842,-1.6817,-1.6827,-1.6824,-1.6821,-1.6794,-1.6789,-1.6788,-1.6783,-1.6773,-1.6772,-1.6772,-1.6771,-1.6786,-1.6787,0,0,0,0,0,0,-1.6898,-1.6892,-1.6869,-1.6867,-1.6873,-1.685,-1.6846,-1.6842,-1.6817,-1.6812,-1.6822,-1.682,-1.6791,-1.6788,-1.6786,-1.6797,-1.6772,-1.6771,-1.6771,-1.6785,-1.6786,-1.6787,0,0,0,0,0,0,-1.6899,-1.6897,-1.6871,-1.6879,-1.6875,-1.685,-1.6846,-1.6842,-1.6837,-1.6813,-1.6808,-1.6822,-1.679,-1.6787,-1.6786,-1.6795,-1.6771,-1.677,-1.6784,-1.6786,-1.6787,-1.682,0,0,0,0,0,0,-1.69,-1.6897,-1.6901,-1.6879,-1.6875,-1.6872,-1.6847,-1.6842,-1.6836,-1.6833,-1.6812,-1.6807,-1.6789,-1.6788,-1.6786,-1.6794,-1.677,-1.6783,-1.6785,-1.6786,-1.6818,-1.6822,-1.6826,0,0,0,0,0,-1.6901,-1.6912,-1.6902,-1.6899,-1.688,-1.6872,-1.6869,-1.6849,-1.6837,-1.6841,-1.6825,-1.6808,-1.6795,-1.6788,-1.6786,-1.6794,-1.6783,-1.6784,-1.6786,-1.6816,-1.6821,-1.6826,0,0,0,0,0,0,-1.6935,-1.6909,-1.6897,-1.6901,-1.6889,-1.6866,-1.687,-1.6855,-1.6846,-1.6843,-1.6818,-1.6814,-1.6816,-1.6805,-1.6797,-1.6803,-1.6786,-1.6788,-1.681,-1.6815,-1.6819,-1.682,-1.6769,0,0,0,0,0,-1.6943,-1.694,-1.6917,-1.6923,-1.6917,-1.6895,-1.6891,-1.6876,-1.6863,-1.6858,-1.6842,-1.6829,-1.6822,-1.6818,-1.6811,-1.6817,-1.6811,-1.6821,-1.6825,-1.6829,-1.683,-1.6831,-1.6835,-1.6793,-1.6793,-1.6793,0,0,-1.696,-1.6945,-1.6944,-1.6929,-1.6918,-1.6914,-1.6891,-1.6888,-1.6885,-1.6857,-1.6855,-1.6844,-1.6828,-1.683,-1.6831,-1.6821,-1.684,-1.6831,-1.6834,-1.6833,-1.6833,-1.6837,-1.6841,-1.6794,-1.6794,-1.6794,0,0,-1.6987,-1.6976,-1.6979,-1.6969,-1.6953,-1.6938,-1.6939,-1.6919,-1.691,-1.6908,-1.6886,-1.6882,-1.6871,-1.6861,-1.6854,-1.6878,-1.6861,-1.6877,-1.6896,-1.6898,-1.6901,-1.6904,-1.6911,-1.6914,-1.6878,-1.6878,-1.6878,0,-1.7009,-1.7003,-1.6982,-1.6981,-1.6975,-1.695,-1.6952,-1.6944,-1.6926,-1.6922,-1.6912,-1.6898,-1.6885,-1.6884,-1.6891,-1.6887,-1.6886,-1.6878,-1.6903,-1.6905,-1.6907,-1.6914,-1.6917,-1.688,-1.688,-1.688,-1.6879,0,-1.703,-1.7026,-1.7031,-1.7014,-1.7009,-1.701,-1.6989,-1.6986,-1.6972,-1.6958,-1.6956,-1.6941,-1.693,-1.6929,-1.6915,-1.6926,-1.6921,-1.6907,-1.6889,-1.6914,-1.6919,-1.6922,-1.6883,-1.6882,-1.6881,-1.6881,0,0,-1.7076,-1.7049,-1.7051,-1.7043,-1.7024,-1.702,-1.702,-1.7009,-1.7007,-1.6996,-1.6994,-1.6986,-1.6973,-1.6966,-1.6951,-1.6953,-1.6971,-1.6939,-1.6938,-1.6944,-1.6981,-1.6989,-1.6993,-1.6961,-1.6962,-1.6962,-1.6982,0,-1.7098,-1.7096,-1.7078,-1.708,-1.7076,-1.7053,-1.7053,-1.7041,-1.7029,-1.7023,-1.701,-1.7003,-1.6988,-1.6983,-1.6984,-1.6969,-1.6978,-1.6968,-1.6958,-1.6958,-1.696,-1.6996,-1.7005,-1.7024,-1.6984,-1.6984,-1.6984,0,-1.7124,-1.7115,-1.7117,-1.7098,-1.7095,-1.7095,-1.7084,-1.7079,-1.7065,-1.7056,-1.7048,-1.7032,-1.703,-1.7015,-1.7011,-1.7004,-1.6999,-1.6991,-1.6992,-1.6988,-1.6971,-1.6992,-1.703,-1.7032,-1.6988,-1.6988,-1.6988,0,-1.7155,-1.7143,-1.7143,-1.7137,-1.7115,-1.7116,-1.7107,-1.7092,-1.7087,-1.7077,-1.7073,-1.7063,-1.7057,-1.705,-1.7031,-1.7022,-1.7029,-1.7013,-1.702,-1.7021,-1.7021,-1.7021,-1.7057,-1.7021,-1.7021,-1.7021,-1.7021,0,-1.7181,-1.7182,-1.7156,-1.7156,-1.7157,-1.7137,-1.7139,-1.7128,-1.7115,-1.7112,-1.7092,-1.7089,-1.7066,-1.706,-1.7046,-1.7044,-1.7042,-1.7034,-1.7029,-1.7034,-1.7035,-1.7029,-1.7027,-1.7022,-1.7022,-1.7022,-1.7022,0,-1.7214,-1.7197,-1.7195,-1.7175,-1.717,-1.7172,-1.7155,-1.7153,-1.714,-1.7136,-1.7134,-1.7113,-1.7106,-1.7087,-1.7075,-1.7065,-1.7066,-1.706,-1.7071,-1.7068,-1.7076,-1.7075,-1.7108,-1.7111,-1.7076,-1.7076,-1.7076,0,-1.7231,-1.7232,-1.7212,-1.7209,-1.7201,-1.7195,-1.719,-1.717,-1.7165,-1.715,-1.715,-1.7141,-1.7133,-1.7122,-1.7105,-1.7096,-1.7088,-1.71,-1.7086,-1.709,-1.7086,-1.7085,-1.7084,-1.7102,-1.7103,-1.7103,-1.7104,0,-1.7262,-1.7253,-1.7246,-1.7237,-1.7231,-1.7222,-1.7212,-1.721,-1.7188,-1.7184,-1.7176,-1.7169,-1.7157,-1.7148,-1.7136,-1.7126,-1.7111,-1.7109,-1.7109,-1.7113,-1.7119,-1.7114,-1.7077,-1.7107,-1.7107,-1.7107,-1.7106,-1.7106,-1.7286,-1.7285,-1.7271,-1.7264,-1.7255,-1.7246,-1.7244,-1.7231,-1.7224,-1.7212,-1.7202,-1.7195,-1.7181,-1.7163,-1.7155,-1.7149,-1.7141,-1.7143,-1.7143,-1.7143,-1.7144,-1.7122,-1.7147,-1.7146,-1.7146,-1.7146,-1.7146,0,-1.7314,-1.7304,-1.7298,-1.7285,-1.7279,-1.7267,-1.7256,-1.7251,-1.7246,-1.7234,-1.7227,-1.7218,-1.7209,-1.7192,-1.7182,-1.718,-1.7173,-1.7178,-1.7177,-1.7175,-1.7153,-1.7152,-1.7184,-1.7184,-1.7184,-1.7184,-1.7184,-1.7184,-1.7328,-1.7326,-1.7316,-1.731,-1.73,-1.7293,-1.7287,-1.7279,-1.727,-1.7261,-1.7253,-1.7243,-1.7229,-1.7218,-1.7209,-1.7205,-1.7201,-1.7208,-1.7201,-1.718,-1.7177,-1.7173,-1.7172,-1.7208,-1.7208,-1.7223,-1.7223,-1.7223]},{"header":{"parameterUnit":"m.s-1","parameterCategory":1,"la1":30.2991,"la2":30.254,"lo1":-89.0895,"lo2":-89.0444,"dy":0.0017,"dx":0.0017,"nx":28,"ny":28,"refTime":"2024-06-04T09:00:00:Z","depth":0,"parameterNumber":3,"parameterNumberName":"V-component_of_WINDS"},"data":[0,0,0,0,0,0,0,0,0,0,0,0,0,0,0,0,0,0,0,0,0,0,0,0,0,0,0,0,0,0,0,0,0,0,0,0,0,0,0,0,0,0,0,0,0,0,0,0,0,0,0,0,0,0,0,0,0,0,3.7895,3.7895,0,3.7855,3.7854,3.7854,3.7879,3.788,3.7881,3.7883,3.7837,3.7835,3.7833,0,0,0,0,0,0,0,0,0,0,0,0,0,3.7992,3.799,3.7896,3.7895,3.7894,3.7855,3.7854,3.7854,3.7879,3.788,3.7882,3.7883,3.7838,3.7835,3.7832,0,0,0,0,0,0,0,0,0,0,0,0,0,3.795,3.799,3.7896,3.7902,3.7903,3.7855,3.7854,3.7853,3.7879,3.788,3.7882,3.7884,3.7839,3.7835,3.7832,3.7774,0,0,3.7821,3.782,0,0,0,0,0,0,0,0,3.7953,3.7947,3.7902,3.7902,3.7902,3.7874,3.7872,3.7827,3.7878,3.7888,3.7883,3.7885,3.7848,3.7844,3.7832,3.7772,3.777,3.7821,3.7819,3.7817,3.7816,0,0,0,0,0,0,0,3.7956,3.7949,3.7879,3.7901,3.7901,3.7906,3.7902,3.7863,3.7858,3.7887,3.7889,3.7884,3.7848,3.7835,3.7831,3.7769,3.7821,3.7818,3.7816,3.7814,3.766,3.7658,0,0,0,0,0,0,3.7958,3.7951,3.7881,3.7878,3.7933,3.7903,3.7899,3.7881,3.7858,3.7857,3.7882,3.7885,3.784,3.7835,3.7829,3.7761,3.7817,3.7814,3.7812,3.7662,3.766,3.7658,0,0,0,0,0,0,3.796,3.7952,3.7882,3.7915,3.7907,3.79,3.7879,3.7879,3.7866,3.7855,3.7854,3.787,3.7841,3.7834,3.7788,3.7759,3.7813,3.7809,3.7665,3.7662,3.7659,3.7622,0,0,0,0,0,0,3.7963,3.7953,3.7931,3.7914,3.7905,3.7842,3.7878,3.7877,3.7861,3.7864,3.7843,3.7842,3.7842,3.7793,3.7785,3.7756,3.7807,3.7667,3.7663,3.766,3.7626,3.7618,3.7612,0,0,0,0,0,3.7966,3.7922,3.793,3.7921,3.7878,3.7841,3.7835,3.7838,3.7858,3.7836,3.7829,3.7842,3.7764,3.7788,3.7779,3.7748,3.7669,3.7664,3.766,3.7629,3.762,3.7612,0,0,0,0,0,0,3.7934,3.792,3.7929,3.7877,3.786,3.7845,3.7817,3.7828,3.7803,3.7807,3.7811,3.7806,3.7758,3.7748,3.7776,3.7691,3.772,3.7713,3.7699,3.769,3.7683,3.7687,3.7804,0,0,0,0,0,3.7921,3.7893,3.7881,3.7837,3.7828,3.7824,3.7808,3.7812,3.7794,3.7786,3.7775,3.7756,3.7727,3.7708,3.7681,3.7625,3.762,3.7599,3.7592,3.7586,3.758,3.755,3.7541,3.7643,3.7643,3.7643,0,0,3.7893,3.7882,3.7864,3.783,3.7817,3.7787,3.7818,3.7784,3.7762,3.7781,3.7737,3.7728,3.7707,3.7656,3.7632,3.7646,3.7551,3.758,3.7576,3.7573,3.7545,3.7535,3.7526,3.764,3.7641,3.7641,0,0,3.7828,3.7817,3.7779,3.7766,3.7747,3.7744,3.7735,3.7718,3.7714,3.767,3.7684,3.7656,3.7606,3.7591,3.7577,3.7506,3.7517,3.7497,3.746,3.7431,3.7423,3.7416,3.7391,3.7382,3.7491,3.7491,3.7491,0,3.7796,3.7753,3.7758,3.7724,3.7709,3.7725,3.7687,3.7673,3.7645,3.7634,3.765,3.7588,3.7575,3.7521,3.7504,3.7491,3.7481,3.7499,3.7424,3.7416,3.741,3.7386,3.7377,3.7489,3.7489,3.7489,3.749,0,3.7714,3.7684,3.7655,3.763,3.7611,3.7575,3.7573,3.7554,3.7559,3.7555,3.751,3.7495,3.7465,3.7452,3.7457,3.7398,3.7408,3.7424,3.7452,3.7398,3.7376,3.7367,3.7486,3.7486,3.7487,3.7488,0,0,3.7627,3.7606,3.7595,3.7584,3.7564,3.754,3.7504,3.7476,3.7459,3.7439,3.7409,3.7367,3.7382,3.7365,3.7368,3.7342,3.7288,3.7361,3.7361,3.7349,3.7223,3.7212,3.7201,3.7295,3.7293,3.7292,3.7225,0,3.7561,3.7501,3.7504,3.7446,3.7418,3.7434,3.7402,3.7386,3.7381,3.7356,3.735,3.732,3.7342,3.7332,3.7307,3.73,3.7263,3.7305,3.7267,3.7265,3.7272,3.719,3.7177,3.7115,3.7216,3.7215,3.7214,0,3.7476,3.7455,3.7395,3.738,3.7368,3.734,3.7315,3.7291,3.7272,3.7271,3.7253,3.726,3.7223,3.7253,3.7202,3.723,3.7215,3.7209,3.7206,3.7203,3.7237,3.7185,3.7095,3.7086,3.72,3.7201,3.7202,0,3.7419,3.7376,3.7334,3.7324,3.7305,3.7285,3.7276,3.726,3.7243,3.7221,3.721,3.7183,3.7168,3.7147,3.7147,3.7168,3.7095,3.7125,3.7093,3.7093,3.7077,3.7078,3.6984,3.7066,3.7066,3.7066,3.7066,0,3.7346,3.7308,3.7309,3.7283,3.7242,3.7246,3.7204,3.7197,3.7183,3.7155,3.7166,3.714,3.7141,3.7115,3.7114,3.7072,3.7065,3.7062,3.7063,3.7062,3.7062,3.7052,3.7057,3.7064,3.7064,3.7065,3.7065,0,3.7275,3.7274,3.723,3.7216,3.7212,3.7182,3.7169,3.7145,3.7141,3.7107,3.7099,3.7092,3.7062,3.7059,3.7023,3.7023,3.6972,3.6977,3.6979,3.698,3.6948,3.6952,3.6845,3.6831,3.6922,3.6921,3.692,0,3.7229,3.7201,3.7184,3.7167,3.7158,3.713,3.7113,3.7116,3.7098,3.7076,3.7053,3.7024,3.7001,3.6951,3.6943,3.6916,3.692,3.6885,3.6916,3.6916,3.692,3.6923,3.692,3.6879,3.6878,3.6877,3.6876,0,3.7146,3.7147,3.7123,3.7099,3.7079,3.706,3.7042,3.7027,3.7028,3.7007,3.6976,3.6958,3.6922,3.6893,3.6867,3.6856,3.6866,3.6866,3.6858,3.6857,3.6859,3.6858,3.6963,3.6869,3.687,3.687,3.6871,3.6871,3.7087,3.7063,3.7048,3.7021,3.7008,3.6991,3.6967,3.6961,3.6936,3.6908,3.6911,3.6877,3.6859,3.6825,3.6813,3.6786,3.6798,3.6785,3.6782,3.6779,3.6776,3.6863,3.6781,3.6781,3.6781,3.6781,3.6782,0,3.7005,3.6996,3.6972,3.6947,3.6926,3.6938,3.6918,3.69,3.687,3.6854,3.6831,3.6796,3.6768,3.6758,3.673,3.6711,3.6715,3.6703,3.6705,3.6703,3.6766,3.6777,3.6701,3.6701,3.6701,3.6701,3.6701,3.6701,3.696,3.6921,3.692,3.6874,3.6865,3.6833,3.6821,3.6805,3.6792,3.6753,3.673,3.6724,3.671,3.6682,3.6656,3.6654,3.6644,3.6631,3.663,3.669,3.6698,3.6706,3.6716,3.6628,3.6628,3.6569,3.6568,3.6568]}]]